www.pogodaiklimat.ru

ПОГОДА в Конкорде, NC

  • Прогноз погоды в Конкорде
  • Монитор погоды в Конкорде
  • Климат в Конкорде

АРХИВ ПОГОДЫ в Конкорде

Время (UTC), дата Ветер
(напр.,м/с)
 
Видим.   Явления Облачность Т
(С)
Тd
(С)
f
(%)
Тe
(С)
Тes
(С)
Комфортность

P
(гПа)

Po
(гПа)
Тmin
(С)
Tmax
(С)
R
(мм)
SD
(см)
13:50 23.03 СЗ  16 км    ясно  +12.0  -7.0  26  +11  +16      1000.3         
14:50 23.03 СЗ  4
{7} 
16 км    ясно  +13.0  -9.0  21  +11  +17      1000.7         
15:50 23.03 СЗ  16 км    ясно  +14.0  -9.0  19  +13  +23      1000.7         
16:50 23.03 С  16 км    ясно  +16.0  -8.0  18  +16  +28  опасность
простуды 
  1000.3         
17:50 23.03 СЗ  16 км    ясно  +16.0  -9.0  17  +16  +29  опасность
простуды 
  999.7         
18:55 23.03 СЗ  16 км    ясно  +17.0  -8.0  17  +17  +26      999.3         
19:56 23.03 СЗ  16 км    ясно  +18.0  -8.0  16  +18  +25      998.7         
20:50 23.03 СЗ  16 км    ясно  +18.0  -9.0  15  +18  +22      998.7         
21:59 23.03   16 км    ясно  +17.0  -6.0  20  +17  +20      999.0         
22:55 23.03   16 км    ясно  +12.0  -4.0  32  +12  +12      999.3         
23:50 23.03   16 км    ясно  +10.0  -4.0  37  +10  +10      999.7         
00:59 24.03   16 км    ясно  +8.0  -2.0  49  +8  +8      1000.3         
01:50 24.03   16 км    ясно  +6.0  -2.0  56  +6  +6      1001.0         
10:50 24.03   16 км    ясно  +2.0  +1.0  93  +1  +1      1001.6         
10:55 24.03   16 км    ясно  +2.0  0.0  87  +1  +1      1001.6         
11:55 24.03   16 км    ясно  +5.0  +2.0  81  +4  +5      1002.3         
12:50 24.03   16 км    ясно  +11.0  +1.0  50  +11  +14      1002.3         
13:50 24.03   16 км    ясно  +16.0  +2.0  39  +16  +25      1002.0         
14:55 24.03 ЮЗ  6
{8} 
16 км    ясно  +19.0  +5.0  40  +19  +21      1001.6         
15:55 24.03 Ю  5
{8} 
16 км    ясно  +19.0  +4.0  37  +19  +24      1001.0         
16:50 24.03 Ю  5
{9} 
16 км    ясно  +21.0  +4.0  33  +21  +27  комфорт    1000.0         
17:50 24.03 ЮЗ  4
{9} 
16 км    ясно  +21.0  +3.0  30  +21  +30  комфорт    998.3         
18:55 24.03 ЮЗ  7
{10} 
16 км    ясно  +22.0  +2.0  27  +22  +24  комфорт    997.4         
19:55 24.03 ЮЗ  6
{9} 
16 км    ясно  +22.0  +3.0  29  +22  +24  комфорт    996.7         
20:59 24.03 ЮЗ  6
{9} 
16 км    ясно  +21.0  +4.0  33  +21  +23  комфорт    996.4         
21:55 24.03 Ю  4
{8} 
16 км    ясно  +20.0  +4.0  35  +21  +22  комфорт    996.4         
22:50 24.03 Ю  16 км    ясно  +18.0  +4.0  39  +18  +19      996.0         
23:55 24.03   16 км    ясно  +17.0  +4.0  42  +17  +17      996.0         
00:50 25.03   16 км    ясно  +15.0  +4.0  48  +15  +15      996.4         
01:55 25.03   16 км    ясно  +13.0  +4.0  54  +13  +13      996.4         
09:50 25.03   16 км    ясно  +12.0  +10.0  88  +11  +11      993.1         
10:50 25.03   16 км    10/0 3000 м
[средняя] 
+13.0  +11.0  88  +12  +12      993.1         
11:50 25.03   16 км    10/0 3000 м
[средняя] 
+14.0  +12.0  88  +14  +14      993.1         
12:55 25.03 ЮЗ  16 км    8/0 3000 м
[средняя] 
+16.0  +12.0  77  +15  +16      992.7         
13:50 25.03 ЮЗ  16 км    8/0 2700 м
[средняя] 
+17.0  +12.0  72  +16  +18      992.4         
14:50 25.03 Ю  16 км    8/0 2700 м
[средняя] 
+19.0  +11.0  60  +20  +22      991.7         
15:50 25.03 З  5
{10} 
16 км    8/8 1500 м  +21.0  +9.0  46  +22  +23  комфорт    991.1         
16:50 25.03 ЮЗ  7
{9} 
16 км    8/0 3000 м
[средняя] 
+22.0  +7.0  38  +23  +24  комфорт    990.1         
17:50 25.03 З  5
{10} 
16 км    8/0 2400 м
[средняя] 
+22.0  +6.0  35  +23  +25  комфорт    989.4         
18:55 25.03 З  5
{9} 
16 км    10/8 1800 м
[средняя] 
+22.0  +7.0  38  +23  +23  комфорт    988.4         
20:50 25.03 С  16 км    10/8 1800 м
[средняя] 
+15.0  +12.0  82  +14  +14      988.8         
21:55 25.03 С  16 км    10/10 1500 м  +14.0  +12.0  88  +13  +13      989.1         
22:50 25.03   11 км    10/10 1440 м  +13.0  +13.0  100  +12  +12      989.4         
23:55 25.03   8 км  дождь, дымка  10/10 1440 м  +13.0  +13.0  100  +12  +12      989.8         
00:50 26.03   6 км  дымка  10/5 60 м
[средняя] 
+13.0  +13.0  100  +12  +12      988.8         
01:25 26.03   3 км  дымка  10/10 60 м  +13.0  +12.0  94  +12  +12      988.8         
01:55 26.03   3 км  дымка  10/10 60 м  +13.0  +13.0  100  +12  +12      989.1         
09:52 26.03 С  16 км    10/10 420 м  +11.0  +9.0  87  +9  +9      992.7         

 

Местоположение метеостанции Concord Regional Airport: широта 35.3853 долгота -80.7097 высота над уровнем моря 210 м.

В архиве по умолчанию представлена погода в Конкорде за последние 1-2 суток. Обновление информации о фактической погоде в базе происходит ежечасно! Архивные данные за месяц целиком и за предыдущие месяцы Вы можете получить, выбрав интересующий диапазон дат из раскрывающегося списка и нажав кнопку "Ввод!".

Внимание! Архив погоды МЕТАР в базе сайта хранится не более 60 дней. Нет смысла пытаться выбрать более раннюю дату.

Внимание! Время в таблицах - всемирное. Для получения местного времени необходимо прибавить поправку, которая в Конкорде равна -5 ч.

Ветер - указаны скорость ветра в м/с и направление, откуда дует ветер: С - северный, СВ - северо-восточный, В - восточный, ЮВ - юго-восточный, Ю - южный, ЮЗ - юго-западный, З - западный, СЗ - северо-западный.
Видимость - горизонтальная дальность видимости в метрах или километрах. При видимости от 1 до 10 км при отсутствии осадков обычно наблюдается дымка, при ухудшении видимости до 1 км и менее - туман. В сухую погоду видимость может ухудшаться дымом, пылью или мглою.
Атмосферные явления - указаны явления, наблюдавшиеся в указанный момент времени.
Облачность - указаны через наклонную черту верхняя и нижняя облачность в баллах и высота нижней границы облаков в метрах. Внимание: облачность, как и прочие метеорологические величины в США измеряются автоматическими метеостанциями. Указанные значения в баллах носят условный характер и показывают процент времени, в течение которого, в среднем, лазерный луч высотомера отражался от облаков обратно.
T - Температура воздуха - температура, измеренная на высоте 2 м над землей.
Td - Температура точки росы - температура, при понижении до которой содержащийся в воздухе водяной пар достигнет насыщения.
f - Относительная влажность воздуха - влажноcть воздуха, измеренная на высоте 2 м над землей.
Te - Эффективная температура - температура, которую ощущает одетый по сезону человек в тени. Характеристика душности погоды. При расчете учитывается влияние влажности воздуха и скорости ветра на теплоощущения человека.
Tes - Эффективная температура на солнце - температура, которую ощущает человек, с поправкой на солнечный нагрев. Характеристика знойности погоды. Зависит от высоты солнца над горизонтом, облачности и скорости ветра. Ночью, в пасмурную погоду, а также при ветре 12 м/с и более поправка равна нулю.
P - Атмосферное давление - приведенное к уровню моря атмосферное давление.
Po - Атмосферное давление - измеренное на уровне метеостанции атмосферное давление.
Tmin - Минимальная температура - минимум температуры воздуха на высоте 2 м над землей.
Tmax - Максимальная температура - максимум температуры воздуха на высоте 2 м над землей.
R - Количество осадков - Количество выпавших осадков за 3 или 6 часов, мм.
SD - Снежный покров - Высота снежного покрова, см.